Regional Weather Roundup
Issued by NWS Wakefield, VA

Home | Current Version | Previous Version | Graphics & Text | Print | Product List | Glossary Off
Versions: 1 2 3 4 5 6 7 8 9 10 11 12 13 14 15 16 17 18 19 20 21 22 23 24 25 26 27 28

000
ASUS41 KAKQ 291515
RWRAKQ

REGIONAL WEATHER ROUNDUP
NATIONAL WEATHER SERVICE WAKEFIELD VA
1100 AM EDT FRI JUL 29 2016

Note: "fair" indicates few or no clouds below 12,000 feet with no
significant weather and/or obstructions to visibility. * = Denotes
station may not report precipitation (e.g., rain,snow,etc.),
thunder or fog.

VAZ042-051-052>054-056-291600-
NORTHERN VIRGINIA

CITY           SKY/WX    TMP DP  RH WIND       PRES   REMARKS
WASH NATIONAL  PTSUNNY   80  69  69 N12       29.89S
DULLES         PTSUNNY   81  69  67 N10       29.90S
FORT BELVOIR   FAIR      80  70  70 VRB5      29.89S
QUANTICO       PTSUNNY   81  70  69 NE12      29.90R
FREDERICKSBRG* FAIR      80  71  75 N12       29.89S
STAFFORD*      PTSUNNY   80  70  71 NW9       29.94S
WARRENTON      FAIR      81  66  60 CALM      29.90F
CULPEPER*      CLOUDY    80  71  75 N6        29.92S
MANASSAS*      MOSUNNY   81  70  69 N8        29.90S
LEESBURG*      FAIR      81  72  74 NE5       29.91F
WINCHESTER     FAIR      79  68  69 NE3       29.92S
FRONT ROYAL*   PTSUNNY   77  70  78 NW7       29.92S
LURAY*         NOT AVBL
$$

VAZ048-049-060>072-079>083-291600-
CENTRAL AND SOUTH CENTRAL VIRGINIA

CITY           SKY/WX    TMP DP  RH WIND       PRES   REMARKS
RICHMOND       PTSUNNY   79  72  79 N10G21    29.90R
CHESTERFIELD*  CLOUDY    81  63  54 N9        29.91S
PETERSBURG*    CLOUDY    83  72  71 N5        29.91S
HANOVER        CLOUDY    77  71  82 VRB5      29.92R
TAPPAHANNOCK*  CLOUDY    80  77  91 NE8       29.89R
QUINTON*       CLOUDY    78  74  86 N9        29.88S
CHARLOTTSVILLE FAIR      82  67  60 NW8       29.93R
GORDONSVILLE*  CLOUDY    79  71  76 N8        29.92S
ORANGE*          N/A     79  72  78 NW8       29.94S
LOUISA*        PTSUNNY   82  73  74 N9        29.91S
BUMPASS*       CLOUDY    78  72  82 CALM      29.91S
FARMVILLE*     PTSUNNY   83  71  66 NE7       29.91S
CREWE*         NOT AVBL
FORT PICKETT*  CLOUDY    81  76  84 N7        29.92S
CHASE CITY*    CLOUDY    80  73  80 N3        29.92R
CLARKSVILLE*   PTSUNNY   82  72  69 N7        29.92R
SOUTH HILL*    CLOUDY    81  73  76 N6        29.97R
LAWRENCEVILLE* CLOUDY    81  74  80 N8        29.91R
EMPORIA*       PTSUNNY   81  72  74 W7        29.91S
$$

VAZ088>098-291600-
SOUTHEAST VIRGINIA

CITY           SKY/WX    TMP DP  RH WIND       PRES   REMARKS
NORFOLK        CLOUDY    84  73  69 NW6       29.87R
VIRGINIA BEACH PTSUNNY   88  73  61 N15       29.86R HX  95
NORFOLK NAVAL  PTSUNNY   84  73  69 NW12      29.88S
WEST POINT*    CLOUDY    79  74  82 NW7       29.89S
SALUDA*        CLOUDY    81  76  83 N8        29.86S
NEWPORT NEWS   PTSUNNY   84  74  71 NW8       29.87S
LANGLEY AFB    PTSUNNY   83  74  74 NW9       29.86S
FORT EUSTIS    FAIR      85  75  73 NW7       29.86R
WILLIAMSBURG*  FAIR      88  75  66 NW7       29.88S HX  97
HR EXEC AP*    PTSUNNY   84  73  70 NW7       29.90R
FRANKLIN*      PTSUNNY   83  72  70 N8        29.89S
US460-WAKEFLD  PTSUNNY   83  71  67 VRB5      29.89R
$$

VAZ020-022-025-037-045-291600-
WEST CENTRAL AND SOUTHWEST VIRGINIA

CITY           SKY/WX    TMP DP  RH WIND       PRES   REMARKS
STAUNTON*      CLOUDY    76  68  76 E3        29.98S
WAYNESBORO*    CLOUDY    76  67  73 N5        29.98S
HOT SPRINGS VA NOT AVBL
LYNCHBURG      PTSUNNY   81  68  64 NW7       29.96R
DANVILLE       FAIR      83  68  60 NW12      29.95R
SOUTH BOSTON*  PTSUNNY  N/A N/A N/A NW9G16    29.93R
MARTINSVILLE   PTSUNNY   81  65  59 NW3       30.00S
ROANOKE        FAIR      80  66  62 NW10      29.99R
BLACKSBURG     FAIR      76  67  72 NW7       30.06S
DUBLIN*        CLOUDY    77  67  72 NW6       30.05S
MARION*        CLOUDY    74  66  75 W14       30.09S
HILLSVILLE*    CLOUDY    72  66  80 NW9       30.06R
RICHLANDS*     CLOUDY    70  69  96 W3        30.08F
WISE*          CLOUDY    73  68  83 SW7       30.09S
ABINGDON*      CLOUDY    74  69  83 W6        30.07S
$$

MDZ021>025-VAZ099-100-291600-
SOUTHERN MARYLAND AND THE DELMARVA PENINSULA

CITY           SKY/WX    TMP DP  RH WIND       PRES   REMARKS
PATUXENT RIVER PTSUNNY   80  72  76 NW10      29.87R
BAY BRIDGE APT MOSUNNY   79  73  83 N13       29.87R
LEONARDTOWN      N/A     77  70  78 MISG        N/A
DOVER          MOSUNNY   79  79 100 N14       29.83S
GEORGETOWN     CLOUDY    78  72  81 N10       29.85R
EASTON         PTSUNNY   81  75  83 N6        29.90R
CAMBRIDGE      CLOUDY    79  72  78 NW8       29.86R
SALISBURY      CLOUDY    79  73  83 MISG      29.84R
OCEAN CITY       N/A    N/A N/A N/A MISG      29.83R
WALLOPS ISLAND FAIR      86  77  74 NW7       29.84R HX  97
ACCOMACK*      CLOUDY    82  73  74 NW10G16   29.85R
$$

NCZ012>017-030>032-291600-
NORTH CENTRAL AND EASTERN NORTH CAROLINA

CITY           SKY/WX    TMP DP  RH WIND       PRES   REMARKS
ROANOKE RAPIDS FAIR      82  72  69 N8G16     29.90R
RALEIGH        MOSUNNY   85  69  58 NW8       29.93R
ELIZABETH CITY SUNNY     88  72  58 W10       29.87R
AHOSKIE*       SUNNY     83  73  71 CALM      29.89S
EDENTON*       SUNNY     89  71  54 W6        29.88S HX  95
CURRITUCK*     SUNNY     87  74  64 W8        29.87S HX  95
KILL DEVIL HLS SUNNY     91  73  55 W8        29.87R HX  99
MANTEO           N/A     87  75  67 W9        29.88R HX  97
CAPE HATTERAS  SUNNY     85  78  80 SW9       29.90S HX  96
TARBORO*       FAIR      88  74  63 W8        29.90S HX  96
GOLDSBORO      MOSUNNY   89  73  58 W9        29.89S HX  97
WASHINGTON     MOSUNNY   86  74  66 W7        29.89S
GREENVILLE     SUNNY     88  73  62 NW8       29.92R HX  96
NEW BERN       SUNNY     89  73  59 W13       29.91S HX  97
WILMINGTON     SUNNY     90  71  53 W20G26    29.92S HX  96
$$

VAZ048-291600-
ELSEWHERE

CITY           SKY/WX    TMP DP  RH WIND       PRES   REMARKS
HARRISBURG PA  MOSUNNY   81  71  71 N7        29.87S
BALTIMORE      MOSUNNY   82  69  64 NW8       29.87S
ANNAPOLIS      MOSUNNY   80  71  74 N8        29.87R
ANDREWS AFB    PTSUNNY   78  69  74 N9        29.89R
PHILADELPHIA   MOSUNNY   80  69  69 N15G22    29.85R
GREENSBORO     MOSUNNY   84  66  54 NW9       29.96S
ROCKY MOUNT    MOSUNNY   87  73  62 N8        29.90S
$$

VAZ100-291600-
MARINE

STATION/POSITION TIME  TEMP    WIND        PRES    WAVE   SWELL
                       AIR SEA DIR/SP/G            HT/PER HT/PER
                 (UTC) (F)     (DEG/KT/KT) (MB)    (FT/S) (FT/S)
BRANDYWINE LGT   1400   75      10/ 23/ 25   N/A
CAPE MAY NJ      1400   78 73  360/  8/ 14 1009.0R
LEWES DE         1400   75 73  340/ 15/ 18 1009.6R
OCEAN-CITY-INLET 1400   79 72  330/ 12/ 15 1010.0R
WACHAPREAGUE VA  1400   84 84  280/  3/  7 1010.1R
THOMAS POINT MD  1500   77 83  360/ 10/ 12 1013.0R
GOOSES REEF MD   1500   78 85  350/ 14/ 17 1012.6R   2/ 3
COVE POINT MD    1400   77      20/ 14/ 20 1011.5R
SOLOMONS ISLAND  1400   77 85  330/  9/ 12   N/A
BISHOPS HEAD MD  1400   78     340/  8/ 11 1010.8R
PINEY POINT MD   1400          350/ 11/ 13   N/A
POTOMAC MD       1500   79 85  340/ 10/ 14 1010.4R   1/ 2
CAMBRIDGE MD     1400   76 87  360/  9/ 11 1009.8R
LEWISETTA VA     1400   78 86  360/  8/ 10 1010.8R
RAPPAHANNOCK LGT 1400          300/ 13/ 14 1011.2R
STINGRAY PT      1500   81 86  270/  8/ 12 1011.5R   1/ 2
YORK RVR RNG VA  1400   80     320/ 11/ 13 1010.6R
YORKTOWN VA      1400   80 85  310/ 12/ 15 1010.8R
JAMESTOWN VA     1500   80 88  310/  6/  8   N/A
DOMINION TERM VA 1400   81     320/ 13/ 16 1011.2R
KIPTOPEKE VA     1400      79  320/ 14/ 18   N/A
CHES BAY BRIDGE  1400   80 82  300/ 16/ 18 1011.0R
CAPE HENRY VA    1400   81     280/  8/ 12   N/A
WILLOUBY STN VA  1400   81     310/  9/ 11   N/A
CAPE HENRY BUOY  1412      75                N/A     2/ 5
1ST LANDING BUOY 1500   81 81  330/ 14/ 16 1011.0R   1/ 3
CAPE CHARLES BUO 1426      76                N/A     2/ 3
OFFSHORE WE BUOY 1421      81                N/A     2/ 4
64NM E OF VA BCH 1450   83 83  240/ 12/ 14 1011.1R   3/ 6   2/ 6
DUCK PIER NC     1400   84 66  260/ 14/ 19 1010.5R
44100 DUCK FRF   1405      80                N/A     2/ 3
44056 DUCK FRF   1411      74                N/A     1/ 2
OREGON INLET NC  1400   85 84  240/ 14/ 16 1011.3R
HATTERAS NC      1400   84 83  220/  8/ 11 1012.1F
DIAMOND SHLS NC  1450   85 85  240/ 16/ 16 1012.9    4/ 6   2/ 9
CAPE LOOKOUT NC  1500   87     230/ 12/ 17 1012.8R
$$




USA.gov is the U.S. government's official web portal to all federal, state and local government web resources and services.